Location: Albert Place
(40.7505°N, 111.9230°W)
Time: 23:07:37
(UTC+00:00)

Cosmos 1812 Rocket - Pass Details

Date: 13 December 2025
Orbit: 600 x 624 km, 82.5° (Epoch: 14 January)

Event Time Altitude Azimuth Distance (km) Brightness Sun altitude
Rises 13:36:09 0° 351° (N) 2,864 6.7 -12.4°
Reaches altitude 10° 13:38:22 10° 351° (N) 1,959 5.8 -12.0°
Maximum altitude 13:42:42 83° 265° (W) 617 3.5 -11.2°
Drops below altitude 10° 13:47:02 10° 176° (S) 1,957 6.5 -10.4°
Sets 13:49:15 0° 176° (S) 2,861 7.3 -10.1°
